Weather History for KALX - October, 2013

Change the Weather History Date:

Thursday, October 17, 2013

  Actual Average (KAUO) Record (KAUO)
Temperature  
Mean Temperature 72 °F -  
Max Temperature 75 °F - 86 °F (2007)
Min Temperature 68 °F - 33 °F (1987)
Degree Days  
Heating Degree Days 0    
Month to date heating degree days  
Since 1 July heating degree days  
Cooling Degree Days 6    
Month to date cooling degree days  
Year to date cooling degree days  
Growing Degree Days 22 (Base 50)    
Moisture  
Dew Point 67 °F    
Average Humidity 84    
Maximum Humidity 90    
Minimum Humidity 76    
Precipitation  
Precipitation 0.37 in - 2.46 in (1975)
Month to date precipitation  
Year to date precipitation  
Sea Level Pressure  
Sea Level Pressure 29.95 in    
Wind  
Wind Speed 2 mph (West)    
Max Wind Speed 10 mph    
Max Gust Speed -    
Visibility 9 miles    
Events Rain    
T = Trace of Precipitation, MM = Missing Value Source: NWS Daily Summary

Daily Weather History Graph

Daily Weather History Graph

Search for Another Location

Airport or City:

Trip Planner

Search our weather history database for the weather conditions in past years. The results will help you decide how hot, cold, wet, or windy it might be!

Date:

Astronomy

Oct. 17, 2013 Rise Set
Actual Time 6:49 AM CDT 6:08 PM CDT
Civil Twilight 6:24 AM CDT 6:32 PM CDT
Nautical Twilight 5:56 AM CDT 7:01 PM CDT
Astronomical Twilight 5:27 AM CDT 7:30 PM CDT
Moon 5:20 PM CDT (10/17) 5:24 AM CDT (10/17)
Length of Visible Light 12h 08m
Length of Day
11h 18m
Waxing Gibbous, 98% of the Moon is Illuminated
Oct 17
Waxing Gibbous
Oct 18
Full
Oct 26
Last Quarter
Nov 3
New
Nov 9
First Quarter

Hourly Weather History & Observations

Time (CDT) Temp. Dew Point Humidity Pressure Visibility Wind Dir Wind Speed Gust Speed Precip Events Conditions
12:15 AM 73.0 °F 66.9 °F 81% 29.97 in 10.0 mi Calm Calm - N/A   Overcast
12:35 AM 72.1 °F 66.6 °F 83% 29.97 in 10.0 mi Calm Calm - N/A   Scattered Clouds
12:55 AM 73.0 °F 66.2 °F 79% 29.96 in 10.0 mi Calm Calm - N/A   Mostly Cloudy
1:15 AM 70.7 °F 65.5 °F 83% 29.96 in 10.0 mi South 4.6 mph - N/A   Mostly Cloudy
1:35 AM 73.0 °F 65.7 °F 78% 29.96 in 10.0 mi Calm Calm - N/A   Mostly Cloudy
1:55 AM 73.0 °F 64.9 °F 76% 29.96 in 10.0 mi Calm Calm - N/A   Mostly Cloudy
2:15 AM 73.0 °F 65.3 °F 77% 29.95 in 10.0 mi Calm Calm - N/A   Mostly Cloudy
2:35 AM 72.5 °F 65.3 °F 78% 29.94 in 10.0 mi Calm Calm - N/A   Mostly Cloudy
2:55 AM 70.7 °F 65.5 °F 83% 29.94 in 10.0 mi Calm Calm - N/A   Mostly Cloudy
3:15 AM 70.7 °F 64.4 °F 80% 29.93 in 10.0 mi Calm Calm - N/A   Mostly Cloudy
3:35 AM 70.7 °F 65.3 °F 83% 29.94 in 10.0 mi Calm Calm - N/A   Scattered Clouds
3:55 AM 70.7 °F 64.9 °F 82% 29.94 in 10.0 mi Calm Calm - N/A   Scattered Clouds
4:15 AM 70.7 °F 65.7 °F 84% 29.93 in 10.0 mi Calm Calm - N/A   Scattered Clouds
4:35 AM 70.7 °F 65.7 °F 84% 29.93 in 10.0 mi Calm Calm - N/A   Mostly Cloudy
4:55 AM 70.7 °F 65.7 °F 84% 29.94 in 10.0 mi Calm Calm - N/A   Mostly Cloudy
5:15 AM 70.7 °F 66.0 °F 85% 29.94 in 10.0 mi Calm Calm - N/A   Mostly Cloudy
5:35 AM 70.7 °F 65.8 °F 85% 29.94 in 10.0 mi Calm Calm - N/A   Mostly Cloudy
5:55 AM 70.7 °F 66.2 °F 86% 29.95 in 10.0 mi Calm Calm - N/A   Mostly Cloudy
6:15 AM 70.7 °F 66.2 °F 86% 29.95 in 10.0 mi Calm Calm - N/A   Overcast
6:35 AM 70.7 °F 66.2 °F 86% 29.95 in 10.0 mi SSW 3.5 mph - N/A Rain Light Rain
6:55 AM 71.4 °F 67.5 °F 87% 29.95 in 10.0 mi Calm Calm - N/A   Mostly Cloudy
7:15 AM 70.7 °F 67.1 °F 88% 29.95 in 7.0 mi Calm Calm - N/A Rain Rain
7:35 AM 70.9 °F 67.5 °F 89% 29.96 in 7.0 mi SSW 3.5 mph - N/A Rain Light Rain
7:55 AM 70.7 °F 67.1 °F 88% 29.96 in 7.0 mi Calm Calm - N/A   Light Drizzle
8:15 AM 70.7 °F 67.1 °F 88% 29.97 in 5.0 mi SSW 3.5 mph - 0.01 in Rain Light Rain
8:35 AM 72.1 °F 68.9 °F 89% 29.97 in 5.0 mi Calm Calm - 0.02 in Rain Light Rain
8:55 AM 70.7 °F 67.3 °F 89% 29.98 in 5.0 mi SSW 4.6 mph - 0.03 in Rain Rain
9:15 AM 71.8 °F 68.5 °F 89% 29.98 in 7.0 mi South 3.5 mph - 0.01 in Rain Light Rain
9:35 AM 73.0 °F 69.4 °F 88% 29.98 in 10.0 mi SSW 4.6 mph - 0.01 in   Light Drizzle
9:55 AM 73.0 °F 69.1 °F 87% 29.98 in 5.0 mi SSW 4.6 mph - 0.02 in Rain Rain
10:15 AM 73.0 °F 69.8 °F 90% 29.98 in 5.0 mi South 4.6 mph - N/A   Drizzle
10:35 AM 73.2 °F 69.8 °F 89% 29.97 in 5.0 mi South 4.6 mph - 0.01 in   Drizzle
10:55 AM 73.0 °F 69.8 °F 90% 29.97 in 4.0 mi SSW 5.8 mph - 0.02 in Rain Light Rain
11:15 AM 72.1 °F 68.7 °F 89% 29.97 in 1.8 mi SSW 4.6 mph - 0.14 in Rain Heavy Rain
11:35 AM 72.5 °F 69.4 °F 90% 29.97 in 2.5 mi SSW 5.8 mph - 0.18 in Rain Rain
11:55 AM 73.0 °F 69.8 °F 90% 29.96 in 2.5 mi SSW 3.5 mph - 0.27 in Rain Heavy Rain
12:15 PM 74.7 °F 71.4 °F 90% 29.96 in 4.0 mi SSW 3.5 mph - 0.02 in Rain Light Rain
12:35 PM 75.6 °F 72.5 °F 90% 29.95 in 7.0 mi SW 4.6 mph - 0.03 in Rain Light Rain
12:55 PM 75.6 °F 72.3 °F 90% 29.94 in 10.0 mi SSW 5.8 mph - 0.03 in Rain Light Rain
1:15 PM 75.6 °F 72.1 °F 89% 29.93 in 10.0 mi SW 5.8 mph - N/A Rain Light Rain
1:35 PM 75.6 °F 72.1 °F 89% 29.93 in 10.0 mi SW 4.6 mph - N/A   Overcast
1:55 PM 75.6 °F 71.6 °F 87% 29.92 in 5.0 mi West 4.6 mph - N/A   Overcast
2:15 PM 75.6 °F 71.6 °F 87% 29.92 in 10.0 mi West 5.8 mph - N/A Rain Light Rain
2:35 PM 75.6 °F 70.2 °F 83% 29.92 in 10.0 mi West 5.8 mph - N/A   Mostly Cloudy
2:55 PM 75.6 °F 71.1 °F 86% 29.92 in 10.0 mi NW 6.9 mph - N/A Rain Light Rain
3:15 PM 75.6 °F 70.7 °F 85% 29.92 in 10.0 mi NW 5.8 mph - N/A   Mostly Cloudy
3:35 PM 75.6 °F 69.8 °F 82% 29.92 in 10.0 mi WNW 6.9 mph - N/A   Overcast
3:55 PM 75.6 °F 70.0 °F 83% 29.92 in 7.0 mi WNW 4.6 mph - N/A Rain Rain
4:15 PM 75.6 °F 70.7 °F 85% 29.92 in 10.0 mi WNW 4.6 mph - N/A   Mostly Cloudy
4:35 PM 75.6 °F 70.0 °F 83% 29.92 in 10.0 mi WNW 3.5 mph - N/A   Mostly Cloudy
4:55 PM 75.6 °F 69.8 °F 82% 29.93 in 10.0 mi NW 3.5 mph - N/A   Overcast
5:15 PM 75.6 °F 70.0 °F 83% 29.93 in 10.0 mi West 4.6 mph - N/A   Overcast
5:35 PM 75.6 °F 68.9 °F 80% 29.93 in 10.0 mi NNW 10.4 mph - N/A   Overcast
5:55 PM 73.0 °F 67.1 °F 82% 29.94 in 10.0 mi NW 5.8 mph - N/A   Overcast
6:15 PM 71.8 °F 66.2 °F 83% 29.94 in 10.0 mi NW 6.9 mph - N/A   Mostly Cloudy
6:35 PM 70.9 °F 65.5 °F 83% 29.95 in 10.0 mi NW 5.8 mph - N/A   Mostly Cloudy
6:55 PM 70.7 °F 64.9 °F 82% 29.95 in 10.0 mi NNW 9.2 mph - N/A   Overcast
7:15 PM 70.7 °F 64.4 °F 80% 29.96 in 10.0 mi NW 5.8 mph - N/A   Overcast
7:35 PM 70.7 °F 64.4 °F 80% 29.96 in 10.0 mi NNW 5.8 mph - N/A   Overcast
7:55 PM 70.7 °F 64.8 °F 81% 29.97 in 10.0 mi NNW 5.8 mph - N/A   Overcast
8:15 PM 70.7 °F 64.8 °F 81% 29.97 in 10.0 mi North 8.1 mph - N/A   Overcast
8:35 PM 70.7 °F 64.4 °F 80% 29.97 in 10.0 mi North 4.6 mph - N/A   Overcast
8:55 PM 70.7 °F 63.9 °F 79% 29.97 in 10.0 mi North 6.9 mph - N/A   Mostly Cloudy
9:15 PM 70.7 °F 64.4 °F 80% 29.98 in 10.0 mi North 4.6 mph - N/A   Mostly Cloudy
9:35 PM 70.7 °F 64.4 °F 80% 29.98 in 10.0 mi North 3.5 mph - N/A   Overcast
9:55 PM 70.7 °F 64.4 °F 80% 29.98 in 10.0 mi NNW 3.5 mph - N/A   Overcast
10:15 PM 70.7 °F 64.4 °F 80% 29.98 in 10.0 mi Calm Calm - N/A   Overcast
10:35 PM 70.7 °F 65.3 °F 83% 29.98 in 10.0 mi Calm Calm - N/A   Overcast
10:55 PM 69.4 °F 64.0 °F 83% 29.98 in 10.0 mi Calm Calm - N/A   Overcast
11:15 PM 68.5 °F 62.8 °F 82% 29.98 in 10.0 mi Calm Calm - N/A   Overcast
11:35 PM 68.0 °F 62.6 °F 83% 29.98 in 10.0 mi North 3.5 mph - N/A   Overcast
11:55 PM 68.0 °F 62.1 °F 81% 29.98 in 10.0 mi Calm Calm - N/A   Overcast